This is the latest recevied weather packets stored in our database for station/object KC0AFB. If no packets are shown the sender has not sent any weather packets the latest 10 day(s).
| Time | Temp. | Humidity | Pressure | Rain* | Wind** | Luminosity | Snow |
|---|---|---|---|---|---|---|---|
| 1777447849 | 1.67° C | 60% | 1019.1 hPa | 0 mm | - | 0 W/m² | - |
| 1777447544 | 1.67° C | 59% | 1019 hPa | 0 mm | - | 0 W/m² | - |
| 1777447241 | 1.67° C | 60% | 1018.9 hPa | 0 mm | - | 0 W/m² | - |
| 1777446940 | 1.11° C | 61% | 1019.1 hPa | 0 mm | - | 0 W/m² | - |
| 1777446636 | 1.11° C | 61% | 1018.9 hPa | 0 mm | - | 0 W/m² | - |
| 1777446332 | 0.56° C | 61% | 1018.9 hPa | 0 mm | - | 0 W/m² | - |
| 1777446029 | 0.56° C | 61% | 1018.9 hPa | 0 mm | - | 0 W/m² | - |
| 1777445726 | 1.11° C | 60% | 1019.2 hPa | 0 mm | - | 0 W/m² | - |
| 1777445421 | 1.11° C | 58% | 1019 hPa | 0 mm | - | 0 W/m² | - |
| 1777445118 | 0.56° C | 59% | 1019.1 hPa | 0 mm | - | 0 W/m² | - |
| 1777444815 | 0.56° C | 60% | 1019.1 hPa | 0 mm | - | 0 W/m² | - |
| 1777444515 | 0.56° C | 60% | 1018.9 hPa | 0 mm | - | 0 W/m² | - |
| 1777444213 | 0.56° C | 60% | 1019 hPa | 0 mm | - | 0 W/m² | - |
| 1777443908 | 0.56° C | 61% | 1019 hPa | 0 mm | - | 0 W/m² | - |
| 1777443605 | 0° C | 61% | 1018.9 hPa | 0 mm | - | 0 W/m² | - |
| 1777443299 | 0.56° C | 61% | 1019.1 hPa | 0 mm | - | 0 W/m² | - |
| 1777442997 | 1.67° C | 58% | 1018.9 hPa | 0 mm | - | 0 W/m² | - |
| 1777442694 | 2.22° C | 55% | 1018.9 hPa | 0 mm | - | 0 W/m² | - |
| 1777442390 | 2.22° C | 54% | 1019 hPa | 0 mm | - | 0 W/m² | - |
| 1777442086 | 2.78° C | 54% | 1018.8 hPa | 0 mm | - | 0 W/m² | - |
| 1777441781 | 2.22° C | 54% | 1018.9 hPa | 0 mm | - | 0 W/m² | - |
| 1777441477 | 2.22° C | 55% | 1019.1 hPa | 0 mm | - | 0 W/m² | - |
| 1777441172 | 2.22° C | 55% | 1018.9 hPa | 0 mm | - | 0 W/m² | - |
| 1777440868 | 2.22° C | 55% | 1019.1 hPa | 0 mm | - | 0 W/m² | - |
| 1777440564 | 2.22° C | 54% | 1018.9 hPa | 0 mm | - | 0 W/m² | - |
* Rain latest hour (hover to see other rain measurements)
** Current wind speed in m/s (hover to see current wind gust speed)